Regional Weather Roundup
Issued by NWS

Home | Current Version | Previous Version | Text Only | Print | Product List | Glossary Off
Versions: 1 2 3 4 5 6 7 8 9 10 11 12 13 14 15 16 17 18 19 20 21 22 23 24 25 26 27 28 29 30 31 32 33 34 35 36 37 38 39 40 41 42 43 44 45 46 47 48 49 50

000
ASUS45 KSLC 061210
RWRUT

UTAH REGIONAL WEATHER ROUNDUP
NATIONAL WEATHER SERVICE SALT LAKE CITY UT
600 AM MDT WED MAY 06 2015

UTZ001>011-023>025-061300-

NORTHERN UTAH

CITY           SKY/WX    TMP DP  RH WIND       PRES   REMARKS
HILL AFB       MOCLDY    54  48  82 S5        29.82F
LOGAN          CLEAR     45  42  89 W3        29.81S
OGDEN          CLOUDY    54  47  77 S8        29.81S
PROVO AIRPORT  CLOUDY    50  46  87 E6        29.84F
SALT LAKE CITY MOCLDY    54  49  83 SE5       29.81F
VERNAL         CLOUDY    51  48  89 CALM      29.80S
WENDOVER       PTCLDY    52  39  62 CALM      29.81S
HEBER CITY     CLOUDY    46  45  93 CALM      29.85S
WEST JORDAN    CLOUDY    50  48  93 S6        29.83F

$$

UTZ012>022-026-027-061300-

SOUTHERN/CENTRAL UTAH

CITY           SKY/WX    TMP DP  RH WIND       PRES   REMARKS
BLANDING       CLOUDY    48  47  97 CALM      29.95S
BRYCE CANYON   CLOUDY    39  37  92 NW6       29.95F WCI  35
CEDAR CITY     LGT RAIN  47  44  90 CALM      29.91S
DELTA          CLOUDY    49  47  90 S3        29.85F
HANKSVILLE     MOCLDY    52  50  93 CALM      29.81F
MILFORD        CLOUDY    50  45  83 S17       29.85F
MOAB/CYNLANDS  CLOUDY    54  51  90 CALM      29.78S
PRICE          MOCLDY    46  40  79 CALM      29.83S
ST GEORGE      PTSUNNY   55  48  76 SE5       29.86F
KANAB          MOCLDY    46  46 100 CALM      29.94F

$$

REGIONAL REPORTS     COLORADO/ARIZONA

CITY           SKY/WX    TMP DP  RH WIND       PRES   REMARKS
CRAIG, CO      CLOUDY    48  45  89 W7        29.80S
GRAND JUNCTION LGT RAIN  52  51  97 CALM      29.79F
RIFLE          LGT RAIN  48  44  86 SE3       29.82S
MONTROSE       CLOUDY    50  48  93 SE6       29.85S
CORTEZ         CLOUDY    49  45  86 S13       29.90S
PAGE, AZ       MOCLDY    55  46  71 S3        29.86S
GRAND CANYON   MOCLDY    41  39  93 CALM      29.98F
KINGMAN        PTCLDY    52  36  54 SE10      29.85S
FLAGSTAFF      PTCLDY    34  34 100 CALM      30.01S

$$

REGIONAL REPORTS    NEVADA/IDAHO/WYOMING

CITY           SKY/WX    TMP DP  RH WIND       PRES   REMARKS
LAS VEGAS, NV  PTCLDY    66  41  40 S5        29.72S
ELY            MOCLDY    45  38  76 S13       29.88F
ELKO           MOCLDY    41  27  57 CALM      29.82S
POCATELLO, ID  MOCLDY    46  23  40 SW13      29.85R
BURLEY         PTCLDY    45  24  43 W10       29.82S
EVANSTON, WY   CLOUDY    42  41  96 SW8       29.87S FOG
ROCK SPRINGS   LGT RAIN  45  42  89 W13       29.81S
KEMMERER       CLOUDY    43  41  93 W10       29.85S

$$



USA.gov is the U.S. government's official web portal to all federal, state and local government web resources and services.